Change the Weather History Date:

Friday, October 18, 2013

  Actual Average Record
Temperature  
Mean Temperature 66 °F -  
Max Temperature 80 °F 73 °F 84 °F (1999)
Min Temperature 53 °F 55 °F 48 °F (1998)
Cooling Degree Days 1    
Growing Degree Days 16 (Base 50)    
Moisture  
Dew Point 44 °F    
Average Humidity 50    
Maximum Humidity 87    
Minimum Humidity 22    
Precipitation  
Precipitation 0.00 in - - ()
Sea Level Pressure  
Sea Level Pressure 29.96 in    
Wind  
Wind Speed 2 mph (NW)    
Max Wind Speed 13 mph    
Max Gust Speed -    
Visibility 10 miles    
Events      
Averages and records for this station are not official NWS values.
T = Trace of Precipitation, MM = Missing Value Source: NWS Daily Summary

Daily Weather History Graph

Daily Weather History Graph

Search for Another Location

Airport or City:

Trip Planner

Search our weather history database for the weather conditions in past years. The results will help you decide how hot, cold, wet, or windy it might be!

Date:

Astronomy

Oct. 18, 2013 Rise Set
Actual Time 6:55 AM PDT 6:11 PM PDT
Civil Twilight 6:30 AM PDT 6:36 PM PDT
Nautical Twilight 6:01 AM PDT 7:05 PM PDT
Astronomical Twilight 5:32 AM PDT 7:33 PM PDT
Moon 6:05 PM PDT (10/18) 6:35 AM PDT (10/18)
Length of Visible Light 12h 06m
Length of Day
11h 16m
Full, 100% of the Moon is Illuminated
Oct 18
Full
Oct 18
Full
Oct 26
Last Quarter
Nov 3
New
Nov 9
First Quarter

Hourly Weather History & Observations

Time (PDT) Temp. Dew Point Humidity Pressure Visibility Wind Dir Wind Speed Gust Speed Precip Events Conditions
12:53 AM 59.0 °F 42.1 °F 53% 29.96 in 10.0 mi Calm Calm - N/A   Clear
1:53 AM 57.9 °F 43.0 °F 58% 29.96 in 10.0 mi Calm Calm - N/A   Clear
2:53 AM 55.0 °F 39.9 °F 57% 29.96 in 10.0 mi Calm Calm - N/A   Clear
3:53 AM 55.9 °F 37.0 °F 49% 29.95 in 10.0 mi ESE 3.5 mph - N/A   Clear
4:53 AM 54.0 °F 39.0 °F 57% 29.95 in 10.0 mi Calm Calm - N/A   Clear
5:53 AM 54.0 °F 37.9 °F 55% 29.96 in 10.0 mi Calm Calm - N/A   Clear
6:53 AM 53.1 °F 37.0 °F 55% 29.98 in 10.0 mi Calm Calm - N/A   Clear
7:53 AM 59.0 °F 37.9 °F 46% 29.99 in 10.0 mi Calm Calm - N/A   Clear
8:53 AM 66.9 °F 37.0 °F 33% 30.00 in 10.0 mi Calm Calm - N/A   Clear
9:53 AM 70.0 °F 35.1 °F 28% 30.00 in 10.0 mi Calm Calm - N/A   Clear
10:53 AM 75.9 °F 35.1 °F 23% 29.99 in 10.0 mi West 4.6 mph - N/A   Clear
11:53 AM 77.0 °F 48.9 °F 37% 29.98 in 10.0 mi WNW 8.1 mph - N/A   Clear
12:53 PM 79.0 °F 37.0 °F 22% 29.96 in 10.0 mi WNW 6.9 mph - N/A   Clear
1:53 PM 79.0 °F 37.9 °F 23% 29.94 in 10.0 mi NW 11.5 mph - N/A   Clear
2:53 PM 77.0 °F 43.0 °F 30% 29.93 in 10.0 mi WNW 11.5 mph - N/A   Clear
3:53 PM 77.0 °F 46.0 °F 33% 29.92 in 10.0 mi NW 9.2 mph - N/A   Clear
4:53 PM 73.0 °F 46.9 °F 39% 29.92 in 10.0 mi NNW 12.7 mph - N/A   Clear
5:53 PM 70.0 °F 55.0 °F 59% 29.94 in 10.0 mi NNW 6.9 mph - N/A   Clear
6:53 PM 68.0 °F 55.0 °F 63% 29.95 in 10.0 mi NNW 4.6 mph - N/A   Clear
7:53 PM 66.0 °F 55.9 °F 70% 29.97 in 10.0 mi Calm Calm - N/A   Clear
8:53 PM 63.0 °F 55.0 °F 75% 29.98 in 10.0 mi NE 3.5 mph - N/A   Clear
9:53 PM 62.1 °F 54.0 °F 75% 29.99 in 10.0 mi Calm Calm - N/A   Clear
10:53 PM 62.1 °F 54.0 °F 75% 29.99 in 10.0 mi Calm Calm - N/A   Clear
11:53 PM 59.0 °F 55.0 °F 87% 29.99 in 9.0 mi Calm Calm - N/A   Clear